Hourly Data Report for June 14, 2015

All times are specified in Local Standard Time (LST). Add 1 hour to adjust for Daylight Saving Time where and when it is observed.

KELOWNA UBCO
BRITISH COLUMBIA

49°56'26.700" N
119°24'00.760" W
456.00 m
1123996
71644
VKU

Download Data

Hourly Data (June 2015)
Hourly Data Report for June 14, 2015
TIME Temp Definition
°C
Dew Point Definition
°C
Rel Hum Definition
%
Wind Dir Definition
10's deg

Wind Spd Definition
km/h
Visibility Definition
km
Stn Press Definition
kPa
Hmdx Definition


Wind Chill Definition


Weather Definition


00:00 10.0 4.7 69       96.37     LegendNANA
01:00 9.7 4.1 68       96.41     LegendNANA
02:00 8.6 4.3 74       96.43     LegendNANA
03:00 8.6 3.7 71       96.47     LegendNANA
04:00 7.7 3.9 77       96.53     LegendNANA
05:00 8.7 4.6 75       96.57     LegendNANA
06:00 12.3 4.8 60       96.61     LegendNANA
07:00 14.7 5.7 55       96.65     LegendNANA
08:00 17.0 6.3 49       96.65     LegendNANA
09:00 18.9 6.2 43       96.61     LegendNANA
10:00 20.8 5.1 36       96.56     LegendNANA
11:00 21.5 3.9 32       96.53     LegendNANA
12:00 23.1 2.4 26       96.49     LegendNANA
13:00 24.5 2.6 24       96.43     LegendNANA
14:00 26.0 1.0 20       96.38     LegendNANA
15:00 24.6 1.3 22       96.34     LegendNANA
16:00 24.4 3.0 25       96.32     LegendNANA
17:00 24.9 3.4 25       96.28     LegendNANA
18:00 22.3 4.0 30       96.30     LegendNANA
19:00 21.7 3.5 30       96.30     LegendNANA
20:00 19.8 3.4 34       96.32     LegendNANA
21:00 18.2 4.6 41       96.36     LegendNANA
22:00 16.8 5.9 49       96.40     LegendNANA
23:00 13.0 6.1 63       96.44     LegendNANA

Notes on Data Quality.

Legend

  • E = Estimated
  • M = Missing
  • NA = Not Available
Date modified: